Weather History for V.C. Bird, Antigua

Change the Weather History Date:

Wednesday, March 6, 2013

  Actual Average Record
Temperature  
Mean Temperature 78 °F -  
Max Temperature 82 °F 81 °F 86 °F (2001)
Min Temperature 75 °F 72 °F 69 °F (2009)
Cooling Degree Days 14    
Growing Degree Days 28 (Base 50)    
Moisture  
Dew Point 70 °F    
Average Humidity 75    
Maximum Humidity 89    
Minimum Humidity 60    
Precipitation  
Precipitation 0.00 in - - ()
Sea Level Pressure  
Sea Level Pressure 30.01 in    
Wind  
Wind Speed 7 mph ()    
Max Wind Speed 12 mph    
Max Gust Speed -    
Visibility 8.7 miles    
Events Rain    
Averages and records for this station are not official NWS values.
T = Trace of Precipitation, MM = Missing Value Source: Averaged Metar Reports

Daily Weather History Graph

Daily Weather History Graph

Search for Another Location

Airport:

Trip Planner

Search our weather history database for the weather conditions in past years. The results will help you decide how hot, cold, wet, or windy it might be!

Date:

Astronomy

Mar. 06, 2013 Rise Set
Actual Time 6:21 AM AST 6:15 PM AST
Civil Twilight 5:59 AM AST 6:36 PM AST
Nautical Twilight 5:34 AM AST 7:02 PM AST
Astronomical Twilight 5:09 AM AST 7:27 PM AST
Moon 1:50 AM AST (3/6) 1:26 PM AST (3/6)
Length of Visible Light 12h 36m
Length of Day
11h 53m
Waning Crescent, 30% of the Moon is Illuminated
Mar 6
Waning Crescent
Mar 11
New
Mar 19
First Quarter
Mar 27
Full
Apr 3
Last Quarter

Hourly Weather History & Observations

Time (AST) Temp. Heat Index Dew Point Humidity Pressure Visibility Wind Dir Wind Speed Gust Speed Precip Events Conditions
1:00 AM 77.0 °F - 69.8 °F 78% 30.01 in 6.2 mi NE 11.5 mph - N/A   Mostly Cloudy
2:00 AM 76 °F - 70 °F 76% 29.99 in 17 mi NE 10.4 mph - -   Haze
2:00 AM 77.0 °F - 69.8 °F 78% 29.98 in 6.2 mi NE 10.4 mph - N/A   Mostly Cloudy
3:00 AM 75.2 °F - 69.8 °F 83% 29.95 in 6.2 mi NE 9.2 mph - N/A   Scattered Clouds
4:00 AM 75.2 °F - 69.8 °F 83% 29.98 in 6.2 mi ENE 6.9 mph - N/A   Mostly Cloudy
5:00 AM 75 °F - 69 °F 78% 29.98 in 17 mi ENE 6.9 mph - -   Haze
5:00 AM 75.2 °F - 69.8 °F 83% 29.98 in 6.2 mi ENE 6.9 mph - N/A   Mostly Cloudy
6:00 AM 75.2 °F - 69.8 °F 83% 29.98 in 6.2 mi ENE 6.9 mph - N/A   Mostly Cloudy
7:00 AM 77.0 °F - 69.8 °F 78% 30.01 in 6.2 mi ENE 8.1 mph - N/A   Mostly Cloudy
8:00 AM 80 °F - 70 °F 64% 30.03 in 19 mi East 6.9 mph - -   Partly Cloudy
8:00 AM 78.8 °F - 69.8 °F 74% 30.01 in 6.2 mi East 6.9 mph - N/A   Scattered Clouds
9:00 AM 78.8 °F - 69.8 °F 74% 30.04 in 6.2 mi East 6.9 mph - N/A   Mostly Cloudy
10:00 AM 80.6 °F 83.9 °F 69.8 °F 70% 30.04 in 6.2 mi East 9.2 mph - N/A   Scattered Clouds
11:00 AM 82.4 °F 86.3 °F 69.8 °F 66% 30.04 in 6.2 mi East 10.4 mph - N/A   Scattered Clouds
12:00 PM 80.6 °F 83.2 °F 68.0 °F 65% 30.04 in 6.2 mi East 5.8 mph - N/A Rain Light Rain Showers
1:00 PM 80.6 °F 83.9 °F 69.8 °F 70% 30.01 in 6.2 mi ESE 5.8 mph - N/A   Scattered Clouds
2:00 PM 80 °F - 69 °F 60% 30.00 in 19 mi East 8.1 mph - -   Partly Cloudy
2:00 PM 80.6 °F 83.2 °F 68.0 °F 65% 29.98 in 6.2 mi East 8.1 mph - N/A   Scattered Clouds
3:00 PM 80.6 °F 83.2 °F 68.0 °F 65% 29.98 in 6.2 mi South 6.9 mph - N/A   Mostly Cloudy
4:00 PM 80.6 °F 83.2 °F 68.0 °F 65% 29.98 in 6.2 mi Variable 2.3 mph - N/A   Mostly Cloudy
5:00 PM 78.8 °F - 69.8 °F 74% 29.98 in 6.2 mi Variable 2.3 mph - N/A   Scattered Clouds
6:00 PM 78.8 °F - 69.8 °F 74% 29.98 in 6.2 mi Variable 2.3 mph - N/A   Scattered Clouds
7:00 PM 77.0 °F - 69.8 °F 78% 30.01 in 6.2 mi Variable 1.2 mph - N/A   Scattered Clouds
8:00 PM 76 °F - 69 °F 73% 30.03 in 19 mi 1.2 mph - -   Mostly Cloudy
8:00 PM 77.0 °F - 69.8 °F 78% 30.01 in 6.2 mi Variable 1.2 mph - N/A   Partly Cloudy
9:00 PM 75.2 °F - 69.8 °F 83% 30.04 in 6.2 mi ENE 3.5 mph - N/A   Partly Cloudy
10:00 PM 75.2 °F - 71.6 °F 89% 30.04 in 6.2 mi ENE 5.8 mph - N/A   Partly Cloudy
11:00 PM 75 °F - 72 °F 86% 30.04 in 19 mi ENE 4.6 mph - -   Scattered Clouds
11:00 PM 75.2 °F - 71.6 °F 89% 30.04 in 6.2 mi ENE 4.6 mph - N/A   Partly Cloudy